Tracking 19279 objects as of 14-Nov-2018
HD Live streaming from Space Station
objects crossing your sky now

GALAXY 25 (TELSTAR 5)

Track GALAXY 25 (TELSTAR 5) now!
GALAXY 25 (TELSTAR 5) is classified as:


NORAD ID: 24812
Int'l Code: 1997-026A
Perigee: 35,780.4 km
Apogee: 35,807.5 km
Inclination: 0.6 °
Period: 1,436.1 minutes
Semi major axis: 42164 km
RCS: 43.2964 m2 (large)
Launch date: May 24, 1997
Source: United States (US)
Launch site: TYURATAM MISSILE AND SPACE COMPLEX (TTMTR)

24 C-band, 28 Ku-band; U.S., southern Canada, Mexico, Caribbean.
aabbcc
Your satellite tracking list
Your tracking list is empty




NASA's NSSDC Master Catalog

Two Line Element Set (TLE):
1 24812U 97026A   18317.13022113 -.00000164  00000-0  00000+0 0  9995
2 24812   0.5879  94.5208 0003211 130.6176 140.8635  1.00271022 78554
Source of the keplerian elements: AFSPC